Regional Weather Roundup
Issued by NWS

Home | Current Version | Previous Version | Graphics & Text | Print | Product List | Glossary On
Versions: 1 2 3 4 5 6 7 8 9 10 11 12 13 14 15 16 17 18 19 20 21 22 23 24 25 26 27 28 29 30 31 32 33 34 35 36 37 38 39 40 41 42 43 44 45 46 47 48 49 50
000
ASUS43 KLOT 271821
RWRIL

ILLINOIS REGIONAL WEATHER ROUNDUP
NATIONAL WEATHER SERVICE CHICAGO/ROMEOVILLE IL
100 PM CDT WED MAY 27 2015

NOTE: "FAIR" INDICATES FEW OR NO CLOUDS BELOW 12,000 FEET WITH NO
SIGNIFICANT WEATHER AND/OR OBSTRUCTIONS TO VISIBILITY.

* THESE STATIONS ARE NOT UNDER NWS QUALITY CONTROL. THEY ALSO MAY NOT
  REPORT WEATHER SUCH AS PRECIPITATION OR FOG.

ILZ001-002-007-009-015-016-024-271900-
NORTHWEST ILLINOIS

CITY           SKY/WX    TMP DP  RH WIND       PRES   REMARKS
MOLINE         FAIR      74  57  55 NW10G20   30.02S
6HR MIN TEMP:  62; 6HR MAX TEMP:  75;

STERLING*      FAIR      75  61  60 NW16G24   30.03R
SAVANNA*       FAIR      73  57  58 NW10      30.03R
$$

ILZ003-004-008-010-011-017-018-271900-
NORTH CENTRAL ILLINOIS

CITY           SKY/WX    TMP DP  RH WIND       PRES   REMARKS
ROCKFORD       PTSUNNY   72  58  61 W18       30.01S
6HR MIN TEMP:  63; 6HR MAX TEMP:  72; 6HR PCP:  0.01;

FREEPORT*      FAIR      69  58  69 W12       30.03S
ROCHELLE*      PTSUNNY   71  60  67 W14       30.02R
DE KALB*       PTSUNNY   68  58  70 W17G24    30.02R
PERU*          FAIR      73  59  61 W13       30.02F
$$

ILZ005-006-012>014-019>023-271900-
NORTHEAST ILLINOIS

CITY           SKY/WX    TMP DP  RH WIND       PRES   REMARKS
CHICAGO-OHARE  PTSUNNY   72  58  61 W16G28    29.98R
6HR MIN TEMP:  65; 6HR MAX TEMP:  72; 6HR PCP: TRACE;

CHICAGO-MIDWAY LGT RAIN  67  61  81 SW13      29.99R
6HR MIN TEMP:  67; 6HR MAX TEMP:  75;

AURORA         PTSUNNY   74  59  59 W20G26    30.00S
6HR MIN TEMP:  65; 6HR MAX TEMP:  74;

LANSING*       PTSUNNY   73  55  52 W18       29.99F
JOLIET*        PTSUNNY   74  61  64 W7G20     30.00S
WAUKEGAN       LGT RAIN  67  58  72 W8G18     29.97R
6HR MIN TEMP:  62; 6HR MAX TEMP:  71; 6HR PCP:  0.08;

DUPAGE AIRPORT PTSUNNY   72  58  61 W20G26    29.99R
6HR MIN TEMP:  63; 6HR MAX TEMP:  73;

KANKAKEE*      CLOUDY    75  60  59 W18G24    30.01S
WHEELING       PTSUNNY   72  59  63 W13       29.99R
6HR MIN TEMP:  65; 6HR MAX TEMP:  72; 6HR PCP: TRACE;

MORRIS*        PTSUNNY   73  61  66 W16G22    29.99S
ROMEOVILLE*    PTSUNNY   72  61  69 W15       30.00S
NORTHERLY ISL    N/A     68  59  73 W6          N/A
$$

LMZ740>746-271900-
SOUTHERN LAKE MICHIGAN

STATION/POSITION SKY/WX   TEMP    WIND        PRES    VSBY  WAVE
                          AIR SEA DIR/SP/G                  HT/PER
                          (F)     (DEG/KT/KT) (MB)    (MI)  (FT/S)
SOUTHERN BUOY              47 38  220/  4/  6 1015.1S         1/ 4
HARRISON CRIB              68     220/ 14/ 17   N/A
BURNHAM HARBOR             68     180/  6/ 17   N/A
CALUMET HARBOR             74     230/  8/ 17   N/A
BURNS HARBOR               67     270/ 13/ 18 1015.9R
MICHIGAN CITY              61     240/ 16/ 17   N/A
MICHIGAN CITY 6N           58 52  250/  6/  8   N/A           1/ 3
ST. JOSEPH                 58 56  280/ 10/ 12   N/A           2/ 3
$$

ILZ025>027-034>036-040-047-049-050-058-095>099-271900-
WEST-CENTRAL ILLINOIS

CITY           SKY/WX    TMP DP  RH WIND       PRES   REMARKS
QUINCY         FAIR      74  58  57 NW9       30.07S
GALESBURG*     PTSUNNY   72  59  64 W8        30.05S
MACOMB*        PTSUNNY   72  60  65 NW12      30.08S
JACKSONVILLE*  FAIR      77  61  56 W14       30.06R
PITTSFIELD*    FAIR      76  59  56 W9G18     30.08R
$$

ILZ028>032-037-038-041>044-048-051>054-059>061-271900-
CENTRAL ILLINOIS

CITY           SKY/WX    TMP DP  RH WIND       PRES   REMARKS
PONTIAC        FAIR      77  60  56 W20G25    30.01F
BLOOMINGTON    FAIR      76  60  57 W17       30.03F
DECATUR        PTSUNNY   76  64  66 W12       30.03S
PEORIA         FAIR      76  57  51 W15       30.03S
6HR MIN TEMP:  67; 6HR MAX TEMP:  77;

LACON*         FAIR      74  59  59 W10G18    30.01F
LINCOLN*       FAIR      78  59  52 W12       30.00S
SPRINGFIELD    FAIR      80  59  48 W17       30.04R HX  81
6HR MIN TEMP:  68; 6HR MAX TEMP:  80; 6HR PCP:  0.01;

TAYLORVILLE    PTSUNNY   75  63  64 W15       30.05R
$$

ILZ033-039-045-046-055>057-062-063-271900-
EAST-CENTRAL ILLINOIS

CITY           SKY/WX    TMP DP  RH WIND       PRES   REMARKS
CHAMPAIGN      MOSUNNY   78  65  63 W18G24    30.02F HX  80
DANVILLE*      CLOUDY    76  65  67 W14       29.99F
RANTOUL*       PTSUNNY   77  66  68 W16       30.01F
PARIS*         CLOUDY    80  61  51 SW14      30.04F HX  81
$$

ILZ079-100>102-271900-
SOUTHWEST ILLINOIS

CITY           SKY/WX    TMP DP  RH WIND       PRES   REMARKS
ALTON          PTSUNNY   77  68  73 W12       30.06S
BELLEVILLE     FAIR      81  63  54 SW10      30.05S HAZE    HX  82
CAHOKIA*       FAIR      81  62  52 MISG      30.05F HX  82
SPARTA*        FAIR      74  65  74 SW6       30.09S
$$

ILZ064>066-069>071-074>076-080>082-084>086-088>090-092>094-271900-
SOUTH-CENTRAL ILLINOIS

CITY           SKY/WX    TMP DP  RH WIND       PRES   REMARKS
CARBONDALE     FAIR      78  65  63 SW12      30.08F HX  80
6HR MIN TEMP:  65; 6HR MAX TEMP:  78; 6HR PCP:  0.13;

CAIRO*         FAIR      75  65  70 S6        30.10S
EFFINGHAM*     FAIR      78  57  49 SW8       30.07S
MARION         PTSUNNY   77  66  69 MISG      30.08F
MT. VERNON     FAIR      77  64  65 SW13      30.08F
CENTRALIA*     FAIR      80  62  54 SW9       30.07R HX  81
SALEM*         FAIR      79  63  56 W9        30.08R HX  81
METROPOLIS*    FAIR      77  66  69 S5        30.10R
$$

ILZ067-068-072-073-078-083-087-091-271900-
SOUTHEAST ILLINOIS

CITY           SKY/WX    TMP DP  RH WIND       PRES   REMARKS
LAWRENCEVILLE  PTSUNNY   79  62  56 W7        30.07R HX  80
FLORA*         PTSUNNY   78  60  53 S9        30.07R
FAIRFIELD*     FAIR      78  63  60 SW6       30.06F
HARRISBURG*    FAIR      80  65  61 W9        30.08F HX  81
ROBINSON*      PTSUNNY   76  59  54 W7        30.07F
CARMI*         FAIR      79  59  50 SW9       30.07S HX  80
$$

ABBREVIATIONS USED IN REMARKS
   TC - TEMPERATURE IN CELSIUS
  WCI - WIND CHILL INDEX
   HX - HEAT INDEX
  VSB - VISIBILITY
$$



USA.gov is the U.S. government's official web portal to all federal, state and local government web resources and services.